�������l�o���
Date,Time,MP-1(��Sv/h),MP-2(��Sv/h),MP-3(��Sv/h),MP-4(��Sv/h),MP-5(��Sv/h),MP-6(��Sv/h),MP-7(��Sv/h),MP-8(��Sv/h),����,����(m/s),���J
2021/09/10,00:00,0.586,0.867,0.552,1.053,0.741,0.361,0.618,0.581,�k�k��,3.0,��
2021/09/10,00:10,0.583,0.868,0.553,1.053,0.739,0.360,0.620,0.581,�k�k��,2.5,��
2021/09/10,00:20,0.586,0.869,0.551,1.055,0.742,0.360,0.620,0.581,�k,2.8,��
2021/09/10,00:30,0.584,0.869,0.552,1.055,0.740,0.360,0.619,0.580,�k,2.6,��
2021/09/10,00:40,0.584,0.870,0.552,1.052,0.740,0.360,0.618,0.582,�k,2.3,��
2021/09/10,00:50,0.585,0.868,0.551,1.053,0.741,0.359,0.619,0.579,�k,2.9,��
2021/09/10,01:00,0.586,0.868,0.553,1.054,0.738,0.360,0.619,0.580,�k�k��,3.1,��
2021/09/10,01:10,0.585,0.868,0.552,1.053,0.741,0.360,0.618,0.581,�k�k��,2.6,�L
2021/09/10,01:20,0.586,0.870,0.552,1.053,0.741,0.360,0.620,0.582,�k�k��,1.7,�L
2021/09/10,01:30,0.585,0.867,0.553,1.053,0.740,0.359,0.618,0.581,�k�k��,3.8,��
2021/09/10,01:40,0.586,0.867,0.552,1.054,0.739,0.359,0.618,0.581,�k�k��,3.8,��
2021/09/10,01:50,0.585,0.868,0.554,1.054,0.742,0.360,0.618,0.582,�k�k��,4.3,��
2021/09/10,02:00,0.585,0.867,0.554,1.054,0.742,0.360,0.619,0.580,�k�k��,4.4,��
2021/09/10,02:10,0.584,0.869,0.552,1.053,0.742,0.360,0.618,0.583,�k�k��,5.4,��
2021/09/10,02:20,0.583,0.867,0.553,1.052,0.740,0.360,0.619,0.581,�k�k��,5.4,��
2021/09/10,02:30,0.586,0.867,0.551,1.052,0.742,0.360,0.617,0.581,�k�k��,5.4,��
2021/09/10,02:40,0.586,0.866,0.552,1.052,0.742,0.360,0.619,0.580,�k�k��,5.8,��
2021/09/10,02:50,0.585,0.868,0.551,1.051,0.740,0.360,0.617,0.580,�k�k��,5.5,��
2021/09/10,03:00,0.583,0.866,0.550,1.051,0.740,0.359,0.619,0.581,�k�k��,5.5,��
2021/09/10,03:10,0.584,0.868,0.551,1.052,0.741,0.358,0.619,0.580,�k�k��,5.8,��
2021/09/10,03:20,0.585,0.867,0.550,1.052,0.740,0.358,0.618,0.579,�k�k��,6.2,��
2021/09/10,03:30,0.586,0.865,0.550,1.053,0.739,0.360,0.618,0.579,�k�k��,5.3,��
2021/09/10,03:40,0.584,0.867,0.551,1.053,0.742,0.360,0.620,0.581,�k�k��,4.4,��
2021/09/10,03:50,0.586,0.868,0.551,1.051,0.741,0.358,0.620,0.581,�k�k��,4.4,��
2021/09/10,04:00,0.586,0.866,0.552,1.051,0.739,0.360,0.618,0.579,�k�k��,4.2,��
2021/09/10,04:10,0.584,0.867,0.553,1.052,0.740,0.359,0.618,0.580,�k,3.6,��
2021/09/10,04:20,0.584,0.866,0.553,1.054,0.740,0.360,0.620,0.581,�k�k��,3.4,��
2021/09/10,04:30,0.585,0.866,0.552,1.053,0.741,0.360,0.619,0.582,�k,3.3,��
2021/09/10,04:40,0.585,0.865,0.552,1.053,0.742,0.360,0.619,0.580,�k,2.9,��
2021/09/10,04:50,0.583,0.865,0.551,1.054,0.739,0.360,0.618,0.579,�k�k��,3.5,��
2021/09/10,05:00,0.585,0.867,0.549,1.053,0.740,0.359,0.618,0.581,�k�k��,4.0,��
2021/09/10,05:10,0.586,0.867,0.550,1.055,0.740,0.360,0.619,0.580,�k�k��,4.1,��
2021/09/10,05:20,0.584,0.867,0.552,1.055,0.740,0.361,0.619,0.581,�k�k��,4.6,��
2021/09/10,05:30,0.584,0.867,0.551,1.054,0.741,0.361,0.619,0.578,�k�k��,4.0,��
2021/09/10,05:40,0.586,0.864,0.551,1.053,0.740,0.361,0.620,0.581,�k�k��,3.6,��
2021/09/10,05:50,0.585,0.868,0.553,1.054,0.740,0.361,0.619,0.582,�k�k��,5.1,��
2021/09/10,06:00,0.585,0.866,0.552,1.052,0.742,0.359,0.618,0.580,�k�k��,4.5,��
2021/09/10,06:10,0.584,0.866,0.552,1.053,0.741,0.360,0.618,0.579,�k,3.9,��
2021/09/10,06:20,0.584,0.867,0.552,1.052,0.741,0.360,0.618,0.581,�k�k��,3.9,��
2021/09/10,06:30,0.585,0.867,0.552,1.055,0.740,0.359,0.620,0.582,�k�k��,4.2,��
2021/09/10,06:40,0.585,0.867,0.553,1.053,0.743,0.360,0.619,0.582,�k�k��,5.2,��
2021/09/10,06:50,0.585,0.867,0.552,1.052,0.738,0.359,0.619,0.580,�k�k��,5.4,��
2021/09/10,07:00,0.586,0.867,0.553,1.051,0.740,0.358,0.620,0.581,�k�k��,5.4,��
2021/09/10,07:10,0.584,0.867,0.551,1.051,0.738,0.358,0.618,0.581,�k�k��,5.5,��
2021/09/10,07:20,0.585,0.867,0.550,1.056,0.738,0.359,0.619,0.581,�k�k��,5.0,��
2021/09/10,07:30,0.585,0.866,0.550,1.057,0.739,0.357,0.621,0.581,�k�k��,5.0,��
2021/09/10,07:40,0.587,0.864,0.550,1.057,0.740,0.359,0.620,0.582,�k�k��,3.7,��
2021/09/10,07:50,0.587,0.867,0.551,1.055,0.738,0.358,0.619,0.582,�k�k��,3.6,��
2021/09/10,08:00,0.585,0.864,0.550,1.054,0.738,0.358,0.620,0.581,�k,2.9,��
2021/09/10,08:10,0.583,0.863,0.551,1.056,0.739,0.358,0.619,0.581,�k,2.6,��
2021/09/10,08:20,0.584,0.865,0.549,1.053,0.738,0.358,0.618,0.580,�k,4.4,��
2021/09/10,08:30,0.585,0.865,0.548,1.054,0.740,0.358,0.618,0.578,�k,4.6,��
2021/09/10,08:40,0.586,0.864,0.550,1.056,0.741,0.358,0.618,0.578,�k,5.4,��
2021/09/10,08:50,0.583,0.865,0.549,1.053,0.739,0.358,0.618,0.579,�k,5.6,��
2021/09/10,09:00,0.585,0.864,0.549,1.055,0.741,0.357,0.619,0.577,�k,5.4,��
2021/09/10,09:10,0.584,0.867,0.550,1.054,0.740,0.357,0.619,0.578,�k�k��,4.7,��
2021/09/10,09:20,0.586,0.866,0.550,1.057,0.741,0.359,0.618,0.580,�k,5.9,��
2021/09/10,09:30,0.586,0.866,0.550,1.054,0.740,0.357,0.619,0.579,�k,6.0,��
2021/09/10,09:40,0.585,0.866,0.550,1.054,0.739,0.361,0.620,0.580,�k�k��,7.6,��
2021/09/10,09:50,0.584,0.866,0.550,1.056,0.740,0.358,0.619,0.578,�k�k��,8.9,��
2021/09/10,10:00,0.585,0.867,0.551,1.057,0.739,0.359,0.618,0.578,�k�k��,8.7,��
2021/09/10,10:10,0.584,0.868,0.550,1.057,0.741,0.358,0.620,0.577,�k�k��,8.5,��
2021/09/10,10:20,0.585,0.865,0.551,1.053,0.744,0.359,0.619,0.580,�k�k��,8.8,��
2021/09/10,10:30,0.586,0.868,0.551,1.057,0.740,0.359,0.618,0.580,�k�k��,9.2,��
2021/09/10,10:40,0.585,0.869,0.551,1.054,0.741,0.358,0.620,0.579,�k�k��,8.4,��
2021/09/10,10:50,0.587,0.867,0.551,1.057,0.743,0.358,0.620,0.579,�k�k��,9.3,��
2021/09/10,11:00,0.586,0.869,0.551,1.055,0.741,0.359,0.619,0.580,�k�k��,9.0,��
2021/09/10,11:10,0.585,0.868,0.551,1.055,0.745,0.358,0.620,0.580,�k�k��,9.0,��
2021/09/10,11:20,0.586,0.869,0.550,1.058,0.745,0.359,0.620,0.579,�k�k��,8.7,��
2021/09/10,11:30,0.587,0.869,0.552,1.058,0.744,0.360,0.622,0.580,�k�k��,8.2,��
2021/09/10,11:40,0.588,0.871,0.550,1.055,0.747,0.360,0.619,0.578,�k�k��,8.2,��
2021/09/10,11:50,0.586,0.873,0.552,1.056,0.744,0.360,0.619,0.580,�k�k��,7.7,��
2021/09/10,12:00,0.587,0.873,0.553,1.056,0.745,0.359,0.620,0.579,�k�k��,6.4,��
2021/09/10,12:10,0.588,0.874,0.550,1.058,0.746,0.360,0.619,0.579,�k�k��,4.6,��
2021/09/10,12:20,0.587,0.872,0.554,1.055,0.744,0.360,0.618,0.579,�k�k��,4.9,��
2021/09/10,12:30,0.587,0.872,0.552,1.058,0.745,0.359,0.619,0.580,�k��,5.2,��
2021/09/10,12:40,0.588,0.873,0.553,1.057,0.744,0.360,0.621,0.580,�k��,5.1,��
2021/09/10,12:50,0.587,0.874,0.554,1.057,0.744,0.358,0.620,0.583,�k��,5.2,��
2021/09/10,13:00,0.586,0.874,0.553,1.058,0.745,0.358,0.620,0.582,�k��,5.1,��
2021/09/10,13:10,0.588,0.871,0.554,1.055,0.746,0.360,0.620,0.580,�k��,4.6,��
2021/09/10,13:20,0.587,0.874,0.553,1.059,0.746,0.360,0.620,0.579,�k�k��,3.8,��
2021/09/10,13:30,0.588,0.873,0.554,1.059,0.746,0.360,0.620,0.581,�k�k��,4.1,��
2021/09/10,13:40,0.588,0.875,0.553,1.057,0.745,0.359,0.620,0.582,�k��,3.4,��
2021/09/10,13:50,0.588,0.874,0.552,1.057,0.746,0.362,0.620,0.580,���k��,3.0,��
2021/09/10,14:00,0.589,0.874,0.553,1.058,0.747,0.361,0.622,0.581,�k�k��,2.6,��
2021/09/10,14:10,0.587,0.874,0.555,1.059,0.747,0.360,0.619,0.581,�k�k��,2.5,��
2021/09/10,14:20,0.588,0.874,0.554,1.058,0.747,0.360,0.620,0.583,�k��,2.6,��
2021/09/10,14:30,0.589,0.876,0.554,1.057,0.747,0.360,0.621,0.581,�k�k��,3.4,��
2021/09/10,14:40,0.588,0.877,0.555,1.060,0.746,0.362,0.621,0.580,�k��,2.6,��
2021/09/10,14:50,0.586,0.875,0.553,1.059,0.750,0.362,0.620,0.581,���k��,3.0,��
2021/09/10,15:00,0.588,0.876,0.555,1.059,0.748,0.360,0.622,0.581,���k��,3.0,��
2021/09/10,15:10,0.586,0.875,0.552,1.060,0.747,0.361,0.620,0.582,�k��,2.8,��
2021/09/10,15:20,0.589,0.876,0.553,1.058,0.749,0.361,0.621,0.580,�k��,2.8,��
2021/09/10,15:30,0.588,0.877,0.554,1.058,0.749,0.360,0.621,0.581,�k��,3.3,��
2021/09/10,15:40,0.588,0.876,0.553,1.058,0.748,0.360,0.621,0.580,�k��,2.5,��
2021/09/10,15:50,0.587,0.876,0.555,1.057,0.747,0.360,0.621,0.581,���k��,2.2,��
2021/09/10,16:00,0.588,0.877,0.555,1.055,0.748,0.360,0.622,0.581,�k��,2.6,��
2021/09/10,16:10,0.589,0.876,0.552,1.057,0.747,0.359,0.621,0.580,���k��,2.0,��
2021/09/10,16:20,0.587,0.875,0.554,1.056,0.745,0.360,0.622,0.581,���k��,2.5,��
2021/09/10,16:30,0.589,0.878,0.552,1.057,0.747,0.361,0.620,0.580,���k��,2.3,��
2021/09/10,16:40,0.589,0.877,0.553,1.058,0.746,0.361,0.619,0.579,���k��,2.0,��
2021/09/10,16:50,0.588,0.876,0.555,1.058,0.748,0.359,0.621,0.579,�k��,2.3,��
2021/09/10,17:00,0.588,0.876,0.553,1.056,0.746,0.360,0.620,0.581,�k��,2.8,��
2021/09/10,17:10,0.589,0.875,0.553,1.057,0.747,0.360,0.618,0.580,�k��,3.1,��
2021/09/10,17:20,0.587,0.877,0.554,1.059,0.746,0.358,0.621,0.580,�k��,1.9,��
2021/09/10,17:30,0.589,0.874,0.554,1.060,0.748,0.360,0.620,0.581,�k��,0.9,��
2021/09/10,17:40,0.587,0.877,0.551,1.056,0.747,0.360,0.620,0.583,�k��,0.9,��
2021/09/10,17:50,0.589,0.879,0.552,1.060,0.750,0.361,0.619,0.582,�쓌,1.2,��
2021/09/10,18:00,0.589,0.880,0.554,1.060,0.750,0.362,0.620,0.582,���k��,0.6,��
2021/09/10,18:10,0.589,0.879,0.556,1.059,0.749,0.361,0.621,0.583,���k��,1.1,��
2021/09/10,18:20,0.587,0.876,0.556,1.060,0.749,0.361,0.622,0.582,��,0.9,��
2021/09/10,18:30,0.588,0.879,0.555,1.060,0.749,0.362,0.623,0.582,��쓌,1.7,��
2021/09/10,18:40,0.590,0.878,0.555,1.061,0.750,0.360,0.622,0.582,-,CALM,��
2021/09/10,18:50,0.590,0.879,0.555,1.062,0.749,0.360,0.620,0.583,��,0.8,��
2021/09/10,19:00,0.588,0.880,0.554,1.062,0.747,0.361,0.622,0.583,�쓌,1.2,��
2021/09/10,19:10,0.588,0.879,0.555,1.061,0.747,0.361,0.622,0.582,�쓌,1.5,��
2021/09/10,19:20,0.590,0.878,0.554,1.061,0.750,0.361,0.621,0.583,���쓌,0.9,��
2021/09/10,19:30,0.590,0.878,0.554,1.062,0.750,0.362,0.621,0.582,��쓌,1.1,��
2021/09/10,19:40,0.588,0.879,0.554,1.063,0.749,0.361,0.621,0.582,�쐼,1.2,��
2021/09/10,19:50,0.589,0.877,0.554,1.062,0.749,0.361,0.623,0.584,��쐼,0.6,��
2021/09/10,20:00,0.588,0.881,0.556,1.062,0.749,0.361,0.624,0.585,��,1.1,��
2021/09/10,20:10,0.589,0.879,0.557,1.061,0.749,0.360,0.622,0.582,��,0.9,��
2021/09/10,20:20,0.590,0.878,0.554,1.063,0.751,0.361,0.622,0.582,-,CALM,��
2021/09/10,20:30,0.589,0.878,0.557,1.063,0.750,0.361,0.624,0.582,��쓌,0.8,��
2021/09/10,20:40,0.587,0.877,0.556,1.063,0.748,0.361,0.622,0.583,���쓌,0.6,��
2021/09/10,20:50,0.589,0.879,0.555,1.062,0.749,0.361,0.622,0.584,��,0.8,��
2021/09/10,21:00,0.589,0.878,0.555,1.060,0.749,0.361,0.621,0.582,-,CALM,��
2021/09/10,21:10,0.589,0.881,0.554,1.062,0.751,0.361,0.623,0.583,���쐼,0.8,��
2021/09/10,21:20,0.587,0.876,0.556,1.062,0.750,0.361,0.622,0.584,���k��,1.2,��
2021/09/10,21:30,0.589,0.879,0.554,1.062,0.751,0.361,0.624,0.583,-,CALM,��
2021/09/10,21:40,0.589,0.877,0.554,1.066,0.751,0.361,0.622,0.581,��,0.9,��
2021/09/10,21:50,0.590,0.879,0.556,1.063,0.751,0.363,0.621,0.584,-,CALM,��
2021/09/10,22:00,0.590,0.878,0.555,1.064,0.750,0.363,0.620,0.583,��쓌,0.8,��
2021/09/10,22:10,0.588,0.879,0.556,1.064,0.749,0.362,0.620,0.581,-,CALM,��
2021/09/10,22:20,0.589,0.878,0.555,1.063,0.750,0.362,0.621,0.582,���쐼,0.6,��
2021/09/10,22:30,0.589,0.879,0.557,1.063,0.750,0.361,0.621,0.584,-,CALM,��
2021/09/10,22:40,0.590,0.878,0.556,1.062,0.750,0.362,0.622,0.583,-,CALM,��
2021/09/10,22:50,0.590,0.877,0.557,1.061,0.751,0.361,0.622,0.581,-,CALM,��
2021/09/10,23:00,0.590,0.877,0.556,1.062,0.750,0.362,0.621,0.582,-,CALM,��
2021/09/10,23:10,0.588,0.875,0.555,1.062,0.750,0.362,0.622,0.584,�쓌,0.6,��
2021/09/10,23:20,0.590,0.879,0.554,1.062,0.750,0.361,0.622,0.583,�쓌,1.2,��
2021/09/10,23:30,0.589,0.877,0.556,1.062,0.749,0.361,0.621,0.583,-,CALM,��
2021/09/10,23:40,0.589,0.878,0.554,1.063,0.751,0.363,0.620,0.584,��쓌,0.6,��
2021/09/10,23:50,0.589,0.877,0.557,1.061,0.752,0.360,0.621,0.583,-,CALM,��
